Weather History for Crossville, TN

Change the Weather History Date:

Monday, March 17, 2014

  Actual Average Record
Temperature  
Mean Temperature 34 °F 47 °F  
Max Temperature 36 °F 58 °F 76 °F (1963)
Min Temperature 31 °F 37 °F 18 °F (1988)
Degree Days  
Heating Degree Days 31    
Month to date heating degree days 359  
Since 1 July heating degree days 3900  
Cooling Degree Days 0    
Month to date cooling degree days 0  
Year to date cooling degree days 0  
Moisture  
Dew Point 32 °F    
Average Humidity 95    
Maximum Humidity 100    
Minimum Humidity 89    
Precipitation  
Precipitation 0.04 in 0.16 in 3.69 in (2002)
Month to date precipitation 2.14 2.60  
Year to date precipitation 7.80 11.82  
Sea Level Pressure  
Sea Level Pressure 29.77 in    
Wind  
Wind Speed 6 mph (NNE)    
Max Wind Speed 13 mph    
Max Gust Speed 17 mph    
Visibility 3 miles    
Events Rain    
T = Trace of Precipitation, MM = Missing Value Source: NWS Daily Summary

Daily Weather History Graph

Daily Weather History Graph

Search for Another Location

Airport:

Trip Planner

Search our weather history database for the weather conditions in past years. The results will help you decide how hot, cold, wet, or windy it might be!

Date:

Astronomy

Mar. 17, 2014 Rise Set
Actual Time 6:48 AM CDT 6:49 PM CDT
Civil Twilight 6:22 AM CDT 7:15 PM CDT
Nautical Twilight 5:53 AM CDT 7:44 PM CDT
Astronomical Twilight 5:22 AM CDT 8:15 PM CDT
Moon 8:02 PM CDT (3/17) 7:05 AM CDT (3/17)
Length of Visible Light 12h 52m
Length of Day
12h 01m
Full, 99% of the Moon is Illuminated
Mar 17
Full
Mar 23
Last Quarter
Mar 30
New
Apr 7
First Quarter
Apr 15
Full

Hourly Weather History & Observations

Time (CDT) Temp. Windchill Dew Point Humidity Pressure Visibility Wind Dir Wind Speed Gust Speed Precip Events Conditions
12:13 AM 36.0 °F 29.6 °F 34.0 °F 93% 29.72 in 2.5 mi NNE 8.1 mph - N/A   Overcast
12:22 AM 35.1 °F 26.9 °F 34.0 °F 96% 29.71 in 3.0 mi NE 11.5 mph - 0.00 in   Overcast
12:53 AM 34.0 °F 26.6 °F 33.1 °F 96% 29.73 in 3.0 mi NNE 9.2 mph - 0.00 in   Overcast
1:05 AM 34.0 °F 26.6 °F 32.0 °F 92% 29.71 in 2.5 mi NNE 9.2 mph - N/A   Overcast
1:33 AM 33.1 °F 25.5 °F 32.0 °F 96% 29.71 in 1.5 mi NNE 9.2 mph - N/A   Overcast
1:53 AM 33.1 °F 26.1 °F 32.0 °F 96% 29.73 in 1.5 mi NNE 8.1 mph - N/A   Overcast
2:25 AM 33.1 °F 26.1 °F 32.0 °F 96% 29.71 in 2.0 mi NNE 8.1 mph - N/A   Overcast
2:53 AM 33.1 °F 25.5 °F 32.0 °F 96% 29.74 in 3.0 mi NNE 9.2 mph - 0.01 in   Overcast
3:38 AM 33.1 °F 27.7 °F 30.9 °F 92% 29.71 in 4.0 mi North 5.8 mph - 0.00 in Rain Light Rain
3:53 AM 33.1 °F 26.9 °F 30.9 °F 92% 29.72 in 5.0 mi North 6.9 mph - 0.03 in Rain Light Rain
4:53 AM 33.1 °F 26.1 °F 30.9 °F 92% 29.71 in 10.0 mi NNE 8.1 mph - 0.00 in   Overcast
5:04 AM 33.1 °F 26.9 °F 30.9 °F 92% 29.69 in 10.0 mi NNE 6.9 mph - N/A   Overcast
5:21 AM 33.1 °F 26.1 °F 30.9 °F 92% 29.70 in 10.0 mi NNE 8.1 mph - N/A   Overcast
5:53 AM 33.1 °F 24.9 °F 30.9 °F 92% 29.68 in 10.0 mi NE 10.4 mph - N/A   Overcast
6:53 AM 33.1 °F 26.9 °F 30.9 °F 92% 29.77 in 9.0 mi North 6.9 mph - N/A   Overcast
7:13 AM 32.0 °F 25.6 °F 30.0 °F 92% 29.75 in 2.0 mi North 6.9 mph - N/A   Overcast
7:25 AM 32.0 °F 25.6 °F 30.0 °F 92% 29.77 in 1.2 mi North 6.9 mph - N/A   Overcast
7:46 AM 30.9 °F 27.5 °F 30.0 °F 96% 29.77 in 2.5 mi Variable 3.5 mph - N/A   Overcast
7:53 AM 32.0 °F 28.7 °F 30.9 °F 96% 29.79 in 3.0 mi NE 3.5 mph - N/A   Overcast
8:15 AM 32.0 °F 26.4 °F 30.9 °F 96% 29.76 in 2.5 mi NNE 5.8 mph - N/A   Overcast
8:22 AM 32.0 °F 25.6 °F 30.9 °F 96% 29.76 in 4.0 mi NNE 6.9 mph - N/A   Overcast
8:40 AM 32.0 °F 25.6 °F 30.9 °F 96% 29.75 in 2.0 mi North 6.9 mph - N/A   Overcast
8:48 AM 32.0 °F 26.4 °F 30.2 °F 93% 29.75 in 1.2 mi North 5.8 mph - N/A   Overcast
8:53 AM 32.0 °F 24.8 °F 30.9 °F 96% 29.78 in 1.2 mi North 8.1 mph - N/A   Overcast
9:05 AM 32.0 °F 24.2 °F 30.0 °F 92% 29.76 in 3.0 mi NNE 9.2 mph - N/A   Overcast
9:53 AM 32.0 °F 24.8 °F 30.0 °F 92% 29.79 in 7.0 mi North 8.1 mph - N/A   Overcast
10:53 AM 32.0 °F 27.5 °F 30.9 °F 96% 29.81 in 3.0 mi NE 4.6 mph - N/A   Overcast
11:00 AM 33.1 °F 26.9 °F 30.9 °F 92% 29.77 in 1.8 mi North 6.9 mph - N/A   Overcast
11:11 AM 33.1 °F 28.7 °F 30.9 °F 92% 29.77 in 0.8 mi NE 4.6 mph - N/A   Overcast
11:21 AM 33.1 °F 27.7 °F 30.9 °F 92% 29.77 in 1.2 mi NE 5.8 mph - N/A   Overcast
11:53 AM 33.1 °F 26.9 °F 32.0 °F 96% 29.80 in 1.0 mi ENE 6.9 mph - N/A   Overcast
12:28 PM 34.0 °F 26.6 °F 32.0 °F 92% 29.76 in 2.5 mi NNE 9.2 mph - N/A   Overcast
12:40 PM 34.0 °F - 32.0 °F 92% 29.76 in 3.0 mi Calm Calm - N/A   Overcast
12:53 PM 34.0 °F 29.8 °F 32.0 °F 92% 29.80 in 3.0 mi North 4.6 mph - N/A   Overcast
1:44 PM 35.1 °F 28.6 °F 33.1 °F 92% 29.74 in 1.8 mi NNE 8.1 mph - N/A   Overcast
1:53 PM 35.1 °F 29.3 °F 33.1 °F 92% 29.77 in 1.5 mi North 6.9 mph - N/A   Overcast
2:53 PM 35.1 °F 31.0 °F 33.1 °F 92% 29.76 in 1.0 mi ENE 4.6 mph - N/A   Overcast
3:19 PM 35.1 °F 32.2 °F 33.1 °F 92% 29.75 in 2.0 mi NNE 3.5 mph - N/A   Overcast
3:53 PM 35.1 °F 30.1 °F 33.1 °F 92% 29.78 in 1.2 mi NNE 5.8 mph - N/A   Overcast
4:53 PM 35.1 °F 31.0 °F 33.1 °F 92% 29.78 in 1.0 mi NNE 4.6 mph - N/A   Overcast
5:08 PM 35.1 °F 30.1 °F 34.0 °F 96% 29.75 in 0.8 mi ENE 5.8 mph - N/A   Overcast
5:26 PM 35.1 °F 30.1 °F 33.1 °F 92% 29.75 in 1.0 mi NE 5.8 mph - N/A   Overcast
5:35 PM 35.1 °F 30.1 °F 33.1 °F 92% 29.75 in 0.8 mi NE 5.8 mph - N/A   Overcast
5:44 PM 35.1 °F 31.0 °F 34.0 °F 96% 29.75 in 1.0 mi ENE 4.6 mph - N/A   Overcast
5:53 PM 35.1 °F 31.0 °F 33.1 °F 92% 29.78 in 1.0 mi ENE 4.6 mph - N/A   Overcast
6:53 PM 35.1 °F 30.1 °F 33.1 °F 92% 29.80 in 1.8 mi NNE 5.8 mph - N/A   Overcast
7:01 PM 35.1 °F 30.1 °F 33.1 °F 92% 29.78 in 2.0 mi NNE 5.8 mph - N/A   Overcast
7:41 PM 34.0 °F 28.0 °F 33.1 °F 96% 29.80 in 1.8 mi North 6.9 mph - N/A   Overcast
7:53 PM 34.0 °F 28.8 °F 33.1 °F 96% 29.84 in 1.8 mi North 5.8 mph - N/A   Overcast
8:53 PM 34.0 °F 28.0 °F 32.0 °F 92% 29.85 in 1.5 mi ENE 6.9 mph - N/A   Overcast
9:30 PM 34.0 °F 29.8 °F 32.0 °F 92% 29.82 in 2.5 mi East 4.6 mph - N/A   Overcast
9:53 PM 34.0 °F 29.8 °F 33.1 °F 96% 29.86 in 2.5 mi NE 4.6 mph - N/A   Overcast
10:04 PM 34.0 °F 29.8 °F 32.0 °F 92% 29.83 in 3.0 mi ENE 4.6 mph - N/A   Overcast
10:20 PM 34.0 °F 29.8 °F 32.0 °F 92% 29.83 in 2.0 mi NE 4.6 mph - N/A   Overcast
10:45 PM 34.0 °F 28.8 °F 32.0 °F 92% 29.84 in 1.8 mi NNE 5.8 mph - N/A   Overcast
10:53 PM 34.0 °F 28.8 °F 32.0 °F 92% 29.87 in 1.8 mi NE 5.8 mph - N/A   Overcast
11:09 PM 34.0 °F 31.0 °F 32.0 °F 92% 29.84 in 2.5 mi NE 3.5 mph - N/A   Overcast
11:53 PM 34.0 °F 31.0 °F 33.1 °F 96% 29.87 in 2.5 mi ESE 3.5 mph - N/A   Overcast